Regional Weather Roundup
Issued by NWS Upton, NY

Current Version | Previous Version | Text Only | Print | Product List | Glossary On
Versions: 1 2 3 4 5 6 7 8 9 10 11 12 13 14 15 16 17 18 19 20 21 22 23 24 25 26 27 28 29 30 31 32 33 34 35 36 37 38 39 40 41 42 43 44 45 46 47 48 49 50
000
ASUS41 KOKX 220718
RWROKX

REGIONAL WEATHER ROUNDUP
NATIONAL WEATHER SERVICE NEW YORK NY
300 AM EDT FRI MAY 22 2015

NOTE: "FAIR" INDICATES FEW OR NO CLOUDS BELOW 12,000 FEET WITH NO
SIGNIFICANT WEATHER AND/OR OBSTRUCTIONS TO VISIBILITY.

NYZ071-072-176-178-NJZ106-104-220800-
NEW YORK CITY METRO AREA


CITY           SKY/WX    TMP DP  RH WIND       PRES   REMARKS
CENTRAL PARK   CLOUDY    55  44  66 W6        29.88F
LAGUARDIA APRT CLOUDY    55  45  68 NW8       29.85F
KENNEDY INTL   CLOUDY    55  47  74 W7        29.87S
NEWARK/LIBERTY CLOUDY    54  46  74 W7        29.87R
BRNX BOT. GARD   N/A     54  45  71 W5        29.86F
TETERBORO      CLOUDY    54  44  69 NW5       29.85F
$$

NYZ177-179-078>081-220800-
LONG ISLAND NEW YORK

CITY           SKY/WX    TMP DP  RH WIND       PRES   REMARKS
FARMINGDALE    CLOUDY    52  46  80 W3        29.86F
ISLIP          CLOUDY    50  47  89 NW3       29.84F
SHIRLEY        CLOUDY    50  48  93 CALM      29.86F
WESTHAMPTON    LGT RAIN  49  48  97 CALM      29.87F
MONTAUK POINT    N/A     51  48  89 CALM      29.87S
$$

NYZ052-065-067-220800-
HUDSON VALLEY

CITY           SKY/WX    TMP DP  RH WIND       PRES   REMARKS
WHITE PLAINS   CLOUDY    53  45  74 W6        29.84F
NEWBURGH       MOCLDY    52  46  82 NW8       29.87S
MONTGOMERY     CLOUDY    52  47  83 W5        29.86S
POUGHKEEPSIE   CLOUDY    55  43  63 W5        29.85S
ALBANY         CLOUDY    55  39  54 W6        29.83S
$$

NJZ001-105-106-008-010-013-015-019>022-104-220800-
NEW JERSEY

CITY           SKY/WX    TMP DP  RH WIND       PRES   REMARKS
NEWARK/LIBERTY CLOUDY    54  46  74 W7        29.87R
TETERBORO      CLOUDY    54  44  69 NW5       29.85F
CALDWELL       CLOUDY    52  45  77 CALM      29.86F
MORRISTOWN     CLOUDY    54  48  82 CALM      29.87S
SOMERVILLE     CLOUDY    51  47  86 CALM      29.86F
SUSSEX         CLOUDY    53  44  71 CALM      29.88F
ANDOVER          N/A     51  45  79 CALM      29.87F
TRENTON        CLOUDY    51  46  83 W5        29.87F
MILLVILLE      CLEAR     48  47  96 W6        29.89F FOG
ATLANTIC CITY  PTCLDY    49  47  93 W6        29.88F
WRIGHTSTOWN    MOCLDY    50  50  99 W3        29.85F
TOMS RIVER     CLOUDY    50  46  87 W5        29.88S
BELMAR         CLOUDY    52  45  76 W6        29.86F
$$

PAZ047>061-062-071-220800-
EASTERN PENNSYLVANIA

CITY           SKY/WX    TMP DP  RH WIND       PRES   REMARKS
PHILADELPHIA   MOCLDY    53  47  79 W6        29.90F
ALLENTOWN      CLOUDY    53  44  71 W5        29.89F
SCRANTON       PTCLDY    46  42  86 CALM      29.90S
$$

CTZ002-004>006-009-010-012-RIZ004-006-007-MAZ004-011-015-220800-
SOUTHERN NEW ENGLAND
 IN CT

CITY           SKY/WX    TMP DP  RH WIND       PRES   REMARKS
BRADLEY INTL   CLOUDY    54  45  71 S7        29.83S
HARTFORD       CLOUDY    53  43  68 S5        29.84S
DANBURY        CLOUDY    51  43  74 W3        29.85F
WTRBRY/OXFORD  CLOUDY    50  41  71 CALM      29.86F
BRIDGEPORT     CLOUDY    53  47  79 SW6       29.85F
MERIDEN        CLOUDY    52  45  77 CALM      29.84F
NEW HAVEN      LGT RAIN  52  46  80 SW5       29.85F
CHESTER        CLOUDY    48  46  93 SW5       29.86R
GROTON         CLOUDY    50  48  93 S3        29.85F
WILLIMANTIC    CLOUDY    51  42  71 S5        29.84F

 IN RI

CITY           SKY/WX    TMP DP  RH WIND       PRES   REMARKS
PROVIDENCE     LGT RAIN  51  46  83 S6        29.84F
BLOCK ISLAND   CLOUDY    50  46  87 W5        29.87S
WESTERLY       LGT RAIN  49  48  97 SW5       29.86S

 IN MA

CITY           SKY/WX    TMP DP  RH WIND       PRES   REMARKS
BOSTON         CLOUDY    54  40  59 SW8       29.82F
WORCESTER      CLOUDY    50  40  68 SW9       29.81F
WESTFIELD      CLOUDY    52  44  74 S3        29.83S
PROVINCETOWN   CLOUDY    52  46  82 S12       29.85F
NANTUCKET      RAIN      50  45  83 SE9       29.85F
$$

ANZ330-335-338-340-345-350-353-355-220800-
COASTAL MARINE OBSERVATIONS


STATION/POSITION TIME  SKY/WX   TEMP    WIND        PRES    VSBY  WAVE
                                AIR SEA DIR/SP/G                  HT/PER
                 (UTC)          (F)     (DEG/KT/KT) (MB)    (MI)  (FT/S)
NY HARB ENTRANCE 0650            53 56  280/  8/ 10 1010.8          1/ 9
4S FIRE IS       0603               53                N/A           1/ 8
20S FIRE ISLAND  0650            51 54  300/  4/  6 1011.0          1/ 9
GREAT SOUTH BAY  0630            53 62  250/  8/ 10   N/A
23SW MTP         0650            49 53  320/  6/  8 1011.0          1/ 8
HUDSON CANYON    NOT AVBL
KINGS POINT      0600            55 53              1010.6
CENTRAL LI SOUND 0630            51 51  210/  6/  8   N/A
EASTERN LI SOUND 0600            50     240/  2/  2   N/A
ROBBINS REEF     0600            54                 1010.0
$$


>>>>>>>>>>>>>>>>>>>>>>>>>>>> KEY <<<<<<<<<<<<<<<<<<<<<<<<<<<
>                                                          <
>     SKY/WX - SKY CONDITION/PRESENT WEATHER               <
>     TMP    - TEMPERATURE IN FAHRENHEIT                   <
>     DP     - DEWPOINT IN FAHRENHEIT                      <
>     RH     - RELATIVE HUMIDITY IN PERCENT                <
>     WIND   - DIRECTION AND SPEED IN MPH                  <
>     PRES   - MEAN SEA LEVEL PRESSURE IN INCHES OF HG     <
>     WCI    - WIND CHILL INDEX                            <
>     VSB    - VISIBILITY IN MILES                         <
>     HX     - HEAT INDEX                                  <
>     TC     - TEMPERATURE IN CELSIUS                      <
>     VRB    - VARIABLE WIND DIRECTION                     <
>                                                          <
>>>>>>>>>>>>>>>>>>>>>>>>>>>> KEY <<<<<<<<<<<<<<<<<<<<<<<<<<<





USA.gov is the U.S. government's official web portal to all federal, state and local government web resources and services.